User: anonymous   Login
Location: Unspecified
(0.0000°N, 0.0000°E)
Time: 01:51:13
(UTC+00:00)
Language:

TBA - TO BE ASSIGNED - Orbit

View from above orbital plane
View from above orbital plane
View from above satellite
View from above satellite

Ground track
Ground track

The orbit is defined by the following mean orbital elements,

1 68636U          26144.73566323 +.00000000 +00000-0 +39978-4 0 00004
2 68636  88.9878 323.4276 0011681  66.5483 293.6903 13.65209094    06
Epoch (UTC): 24 May 2026 17:39:21
Eccentricity: 0.0011681
inclination: 88.9878°
perigee height: 1008 km
apogee height: 1025 km
right ascension of ascending node: 323.4276°
argument of perigee: 66.5483°
revolutions per day: 13.65209094
mean anomaly at epoch: 293.6903°

The dashed part of the orbit path shows where the satellite is in the earth's shadow,  

DLR